Miscellaneous Local Product
Issued by NWS North Platte, NE

Home | Current Version | Previous Version | Text Only | Print | Product List | Glossary On
Versions: 1 2 3 4 5 6 7 8 9 10 11 12 13 14 15 16 17 18 19 20 21 22 23 24 25 26 27 28 29 30 31 32 33 34 35 36 37 38 39 40 41 42 43 44 45 46 47 48 49 50
000
AXUS43 KLBF 230910
MISLBF


WESTERN AND NORTH CENTRAL NEBRASKA HOURLY WEATHER ROUNDUP
NATIONAL WEATHER SERVICE NORTH PLATTE NE
400 AM CDT WED JUL 23 2014

***STATIONS NOT REPORTING VARIABLES SUCH AS SKY/WEATHER OR
PRESSURE ARE PROVIDED BY THE NEBRASKA DEPARTMENT OF
ROADS...RAWS...AND APRS NETWORKS...AND ARE NOT UNDER
NATIONAL WEATHER SERVICE QUALITY CONTROL***

...OBSERVATIONS IN AND NEAR THE EASTERN PANHANDLE OF NEBRASKA...

CITY           SKY/WX    TMP DP  RH WIND       PRES   REMARKS
PINE RIDGE     TSTM      68  60  75 N17G30    30.42R
CHADRON        PTCLDY    67  63  87 N14       30.33R
ALLIANCE       CLEAR     64  60  87 SE8       30.30F
SIDNEY         PTCLDY    67  63  87 SE15G22   30.32F
WHITECLAY        N/A     69  62  77 E22         N/A
RUSHVILLE        N/A     66  63  91 S15         N/A
GORDON           N/A     69  67  94 S12         N/A
CRESCENT LAKE    N/A     65  60  83 SE6         N/A
LISCO            N/A     72  65  78 E8          N/A
BIG SPRINGS      N/A     70  66  86 E6          N/A
$$

...OBSERVATIONS IN NORTH CENTRAL NEBRASKA...

CITY           SKY/WX    TMP DP  RH WIND       PRES   REMARKS
VALENTINE      CLOUDY    70  60  70 SE12      30.23F
THEDFORD       MOCLDY    66  64  91 E7        30.27S
AINSWORTH      CLOUDY    65  60  82 S3        30.26S
O`NEILL        MOCLDY    64  58  81 CALM      30.25F
ORD            MOCLDY    64  62  93 CALM      30.23F
BROKEN BOW     MOCLDY    67  64  90 E9        30.22F
BROWNLEE         N/A     70  65  84 E14         N/A
SPRINGVIEW       N/A     65  61  86 CALM        N/A
DUNNING          N/A     68  68 100 CALM        N/A
ROSE             N/A     69  66  90 E10         N/A
NEWPORT          N/A     65  62  87 CALM        N/A
SARGENT          N/A     66  63  90 CALM        N/A
COMSTOCK         N/A     68  67  98 E6          N/A
CHAMBERS         N/A     64  61  90 CALM        N/A
$$

...OBSERVATIONS IN SOUTHWEST NEBRASKA AND FAR NORTHEAST COLORADO...

CITY           SKY/WX    TMP DP  RH WIND       PRES   REMARKS
WRAY             N/A     70  65  82 E10       30.29R
HOLYOKE        CLOUDY    72  64  78 E12       30.30F
IMPERIAL       CLOUDY    70  65  84 E16       30.29R
OGALLALA       PTCLDY    66  62  87 E10       30.28S
NORTH PLATTE   MOCLDY    68  64  87 SE7       30.27F
MCCOOK         CLOUDY    71  67  87 NE10      30.26R
LEXINGTON      CLOUDY    69  66  93 SE3       30.26R
PAXTON           N/A     70  65  83 E3          N/A
SUTHERLAND       N/A     70  67  90 S7          N/A
BRADY            N/A     67  63  88 CALM        N/A
GOTHENBURG       N/A     69  63  82 E5          N/A
CALLAWAY         N/A     67  66  96 E7          N/A
$$

...NORTH PLATTE AREA...

CITY           SKY/WX    TMP DP  RH WIND       PRES   REMARKS
AIRPORT        MOCLDY    68  64  87 SE7       30.27F
$$

...SOME WEATHER OBSERVATIONS FROM AROUND THE REGION...

CITY           SKY/WX    TMP DP  RH WIND       PRES   REMARKS
DENVER         PTCLDY    71  46  40 SW12      30.32F
LARAMIE        CLEAR     62  55  77 S15       30.44F
CHEYENNE       CLEAR     65  61  87 S14       30.39F
SCOTTSBLUFF    CLEAR     69  64  84 SE13      30.29F
RAPID CITY     CLOUDY    64  56  75 SW16      30.26R THUNDER
PIERRE         CLOUDY    65  60  84 SE6       30.23R
WINNER         FAIR      67  58  72 SE7       30.23S
SIOUX FALLS    CLEAR     60  56  86 NE3       30.23F
OMAHA          CLEAR     66  59  78 NW7       30.18F
GRAND ISLAND   PTCLDY    67  63  87 NE7       30.22F
KANSAS CITY    PTCLDY    75  69  81 NE14      30.10F
WICHITA        CLEAR     76  72  87 W7        30.10F
HAYS           MOCLDY    66  64  94 NE9       30.18R
LIBERAL        CLEAR     72  64  78 S3        30.22F
GOODLAND       CLEAR     68  66  93 E6        30.24F
$$



USA.gov is the U.S. government's official web portal to all federal, state and local government web resources and services.